Time,TemperatureF,DewpointF,PressureIn,WindDirection,WindDirectionDegrees,WindSpeedMPH,WindSpeedGustMPH,Humidity,HourlyPrecipIn,Conditions,Clouds,dailyrainin,SoftwareType,DateUTC
2013-08-10 00:00:00,63.0,61.5,30.01,NW,309,0.0,0.0,95,0.00,,---,0.00,VWS V14.01,2013-08-10 05:00:00,
2013-08-10 00:01:00,62.9,61.5,30.01,NW,309,0.0,0.0,95,0.00,,---,0.00,VWS V14.01,2013-08-10 05:01:00,
2013-08-10 00:06:00,62.9,61.8,30.01,NW,309,0.0,0.0,96,0.00,,---,0.00,VWS V14.01,2013-08-10 05:06:00,
2013-08-10 00:11:00,62.8,61.7,30.01,NW,309,0.0,0.0,96,0.00,,---,0.00,VWS V14.01,2013-08-10 05:11:00,
2013-08-10 00:16:00,62.6,61.5,30.01,NW,309,0.0,0.0,96,0.00,,---,0.00,VWS V14.01,2013-08-10 05:16:00,
2013-08-10 00:21:00,62.4,61.2,30.01,NW,309,0.0,0.0,96,0.00,,---,0.00,VWS V14.01,2013-08-10 05:21:00,
2013-08-10 00:26:00,62.3,61.2,30.01,NW,309,0.0,0.0,96,0.00,,---,0.00,VWS V14.01,2013-08-10 05:26:00,
2013-08-10 00:30:00,62.2,61.0,30.02,NW,309,0.0,0.0,96,0.00,,---,0.00,VWS V14.01,2013-08-10 05:30:00,
2013-08-10 00:31:00,62.1,61.0,30.02,NW,309,0.0,0.0,96,0.00,,---,0.00,VWS V14.01,2013-08-10 05:31:00,
2013-08-10 00:36:00,62.1,61.0,30.02,NW,309,0.0,0.0,96,0.00,,---,0.00,VWS V14.01,2013-08-10 05:36:00,
2013-08-10 00:41:00,62.3,61.4,30.02,NW,309,0.0,0.0,97,0.00,,---,0.00,VWS V14.01,2013-08-10 05:41:00,
2013-08-10 00:46:00,62.5,61.6,30.02,NW,309,0.0,0.0,97,0.00,,---,0.00,VWS V14.01,2013-08-10 05:46:00,
2013-08-10 00:51:00,62.6,61.7,30.02,NW,309,0.0,0.0,97,0.00,,---,0.00,VWS V14.01,2013-08-10 05:51:00,
2013-08-10 00:56:00,62.5,61.6,30.02,NW,309,0.0,0.0,97,0.00,,---,0.00,VWS V14.01,2013-08-10 05:56:00,
2013-08-10 01:00:00,62.5,61.6,30.02,NW,309,0.0,0.0,97,0.00,,---,0.00,VWS V14.01,2013-08-10 06:00:00,
2013-08-10 01:01:00,62.4,61.5,30.02,NW,309,0.0,0.0,97,0.00,,---,0.00,VWS V14.01,2013-08-10 06:01:00,
2013-08-10 01:06:00,62.3,61.4,30.02,NW,309,0.0,0.0,97,0.00,,---,0.00,VWS V14.01,2013-08-10 06:06:00,
2013-08-10 01:11:00,62.2,61.3,30.03,NW,309,0.0,0.0,97,0.00,,---,0.00,VWS V14.01,2013-08-10 06:11:00,
2013-08-10 01:16:00,61.9,61.0,30.03,NW,309,0.0,0.0,97,0.00,,---,0.00,VWS V14.01,2013-08-10 06:16:00,
2013-08-10 01:21:00,61.8,60.9,30.03,NW,309,0.0,0.0,97,0.00,,---,0.00,VWS V14.01,2013-08-10 06:21:00,
2013-08-10 01:26:00,61.8,60.9,30.03,NW,309,0.0,0.0,97,0.00,,---,0.00,VWS V14.01,2013-08-10 06:26:00,
2013-08-10 01:30:00,61.8,60.9,30.02,NW,309,0.0,0.0,97,0.00,,---,0.00,VWS V14.01,2013-08-10 06:30:00,
2013-08-10 01:31:00,62.1,61.2,30.02,NW,309,0.0,0.0,97,0.00,,---,0.00,VWS V14.01,2013-08-10 06:31:00,
2013-08-10 01:36:00,62.2,61.3,30.02,NW,309,0.0,0.0,97,0.00,,---,0.00,VWS V14.01,2013-08-10 06:36:00,
2013-08-10 01:41:00,62.2,61.3,30.02,NW,309,0.0,0.0,97,0.00,,---,0.00,VWS V14.01,2013-08-10 06:41:00,
2013-08-10 01:46:00,62.3,61.7,30.02,NW,309,0.0,0.0,98,0.00,,---,0.00,VWS V14.01,2013-08-10 06:46:00,
2013-08-10 01:51:00,62.3,61.7,30.02,NW,309,0.0,0.0,98,0.00,,---,0.00,VWS V14.01,2013-08-10 06:51:00,
2013-08-10 01:56:00,62.2,61.3,30.03,NW,309,0.0,0.0,97,0.00,,---,0.00,VWS V14.01,2013-08-10 06:56:00,
2013-08-10 02:00:00,62.2,61.3,30.03,NW,309,0.0,0.0,97,0.00,,---,0.00,VWS V14.01,2013-08-10 07:00:00,
2013-08-10 02:01:00,62.2,61.6,30.03,NW,309,0.0,0.0,98,0.00,,---,0.00,VWS V14.01,2013-08-10 07:01:00,
2013-08-10 02:06:00,62.1,61.2,30.02,NW,309,0.0,0.0,97,0.00,,---,0.00,VWS V14.01,2013-08-10 07:06:00,
2013-08-10 02:11:00,61.9,61.0,30.03,NW,309,0.0,0.0,97,0.00,,---,0.00,VWS V14.01,2013-08-10 07:11:00,
2013-08-10 02:16:00,61.8,60.9,30.03,NW,309,0.0,0.0,97,0.00,,---,0.00,VWS V14.01,2013-08-10 07:16:00,
2013-08-10 02:21:00,62.1,61.5,30.03,NW,309,0.0,0.0,98,0.00,,---,0.00,VWS V14.01,2013-08-10 07:21:00,
2013-08-10 02:26:00,62.2,61.6,30.03,NW,309,0.0,0.0,98,0.00,,---,0.00,VWS V14.01,2013-08-10 07:26:00,
2013-08-10 02:30:00,62.2,61.6,30.03,NW,309,0.0,0.0,98,0.00,,---,0.00,VWS V14.01,2013-08-10 07:30:00,
2013-08-10 02:31:00,62.4,61.8,30.03,NW,309,0.0,0.0,98,0.00,,---,0.00,VWS V14.01,2013-08-10 07:31:00,
2013-08-10 02:36:00,62.6,62.0,30.03,NW,309,0.0,0.0,98,0.00,,---,0.00,VWS V14.01,2013-08-10 07:36:00,
2013-08-10 02:41:00,62.7,62.1,30.03,NW,309,0.0,0.0,98,0.00,,---,0.00,VWS V14.01,2013-08-10 07:41:00,
2013-08-10 02:46:00,62.7,62.1,30.03,NW,309,0.0,0.0,98,0.00,,---,0.00,VWS V14.01,2013-08-10 07:46:00,
2013-08-10 02:51:00,62.5,61.9,30.03,NW,309,0.0,0.0,98,0.00,,---,0.00,VWS V14.01,2013-08-10 07:51:00,
2013-08-10 02:56:00,62.2,61.3,30.04,NW,309,0.0,0.0,97,0.00,,---,0.00,VWS V14.01,2013-08-10 07:56:00,
2013-08-10 03:00:00,62.1,61.2,30.04,NW,309,0.0,0.0,97,0.00,,---,0.00,VWS V14.01,2013-08-10 08:00:00,
2013-08-10 03:01:00,62.0,61.4,30.04,NW,309,0.0,0.0,98,0.00,,---,0.00,VWS V14.01,2013-08-10 08:01:00,
2013-08-10 03:06:00,62.2,61.6,30.04,NW,309,0.0,0.0,98,0.00,,---,0.00,VWS V14.01,2013-08-10 08:06:00,
2013-08-10 03:11:00,62.3,61.7,30.03,NW,309,0.0,0.0,98,0.00,,---,0.00,VWS V14.01,2013-08-10 08:11:00,
2013-08-10 03:16:00,62.4,61.8,30.03,NW,309,0.0,0.0,98,0.00,,---,0.00,VWS V14.01,2013-08-10 08:16:00,
2013-08-10 03:21:00,62.3,61.7,30.04,NW,309,0.0,0.0,98,0.00,,---,0.00,VWS V14.01,2013-08-10 08:21:00,
2013-08-10 03:26:00,62.2,61.6,30.04,NW,309,0.0,0.0,98,0.00,,---,0.00,VWS V14.01,2013-08-10 08:26:00,
2013-08-10 03:30:00,62.2,61.6,30.04,NW,309,0.0,0.0,98,0.00,,---,0.00,VWS V14.01,2013-08-10 08:30:00,
2013-08-10 03:31:00,62.3,61.7,30.03,NW,309,0.0,0.0,98,0.00,,---,0.00,VWS V14.01,2013-08-10 08:31:00,
2013-08-10 03:36:00,62.4,61.8,30.04,SSW,203,0.0,1.0,98,0.00,,---,0.00,VWS V14.01,2013-08-10 08:36:00,
2013-08-10 03:41:00,62.4,61.8,30.04,SSW,204,0.0,1.0,98,0.00,,---,0.00,VWS V14.01,2013-08-10 08:41:00,
2013-08-10 03:46:00,62.4,61.8,30.04,SSW,204,0.0,1.0,98,0.00,,---,0.00,VWS V14.01,2013-08-10 08:46:00,
2013-08-10 03:51:00,62.4,61.8,30.04,SSW,204,0.0,1.0,98,0.00,,---,0.00,VWS V14.01,2013-08-10 08:51:00,
2013-08-10 03:56:00,62.3,61.7,30.03,SSW,204,0.0,1.0,98,0.00,,---,0.00,VWS V14.01,2013-08-10 08:56:00,
2013-08-10 04:00:00,62.3,61.7,30.03,SSW,204,0.0,1.0,98,0.00,,---,0.00,VWS V14.01,2013-08-10 09:00:00,
2013-08-10 04:01:00,62.4,61.8,30.03,East,100,0.0,0.0,98,0.00,,---,0.00,VWS V14.01,2013-08-10 09:01:00,
2013-08-10 04:06:00,62.4,62.1,30.03,East,101,0.0,0.0,99,0.00,,---,0.00,VWS V14.01,2013-08-10 09:06:00,
2013-08-10 04:11:00,62.5,61.9,30.03,East,101,0.0,0.0,98,0.00,,---,0.00,VWS V14.01,2013-08-10 09:11:00,
2013-08-10 04:16:00,62.6,62.3,30.03,East,100,0.0,0.0,99,0.00,,---,0.00,VWS V14.01,2013-08-10 09:16:00,
2013-08-10 04:21:00,62.9,62.6,30.03,ESE,121,0.0,0.0,99,0.00,,---,0.00,VWS V14.01,2013-08-10 09:21:00,
2013-08-10 04:26:00,63.1,62.8,30.03,East,101,0.0,0.0,99,0.00,,---,0.00,VWS V14.01,2013-08-10 09:26:00,
2013-08-10 04:30:00,63.1,62.5,30.03,ESE,102,0.0,0.0,98,0.00,,---,0.00,VWS V14.01,2013-08-10 09:30:00,
2013-08-10 04:31:00,63.2,62.6,30.03,ESE,102,0.0,0.0,98,0.00,,---,0.00,VWS V14.01,2013-08-10 09:31:00,
2013-08-10 04:36:00,63.4,62.8,30.03,ESE,102,0.0,0.0,98,0.00,,---,0.00,VWS V14.01,2013-08-10 09:36:00,
2013-08-10 04:41:00,63.4,62.8,30.03,ESE,102,0.0,0.0,98,0.00,,---,0.00,VWS V14.01,2013-08-10 09:41:00,
2013-08-10 04:46:00,63.5,62.6,30.04,ESE,102,0.0,0.0,97,0.00,,---,0.00,VWS V14.01,2013-08-10 09:46:00,
2013-08-10 04:51:00,63.6,62.7,30.04,East,99,0.0,0.0,97,0.00,,---,0.00,VWS V14.01,2013-08-10 09:51:00,
2013-08-10 04:56:00,63.7,62.5,30.04,East,91,0.0,0.0,96,0.00,,---,0.00,VWS V14.01,2013-08-10 09:56:00,
2013-08-10 05:00:00,63.7,62.5,30.04,SE,133,0.0,0.0,96,0.00,,---,0.00,VWS V14.01,2013-08-10 10:00:00,
2013-08-10 05:01:00,63.7,62.5,30.05,SE,133,0.0,0.0,96,0.00,,---,0.00,VWS V14.01,2013-08-10 10:01:00,
2013-08-10 05:06:00,63.6,62.4,30.05,SE,133,0.0,0.0,96,0.00,,---,0.00,VWS V14.01,2013-08-10 10:06:00,
2013-08-10 05:11:00,63.4,62.0,30.05,SE,133,0.0,0.0,95,0.00,,---,0.00,VWS V14.01,2013-08-10 10:11:00,
2013-08-10 05:16:00,63.3,61.8,30.05,SE,133,0.0,0.0,95,0.00,,---,0.00,VWS V14.01,2013-08-10 10:16:00,
2013-08-10 05:21:00,63.2,61.8,30.05,SE,132,0.0,0.0,95,0.00,,---,0.00,VWS V14.01,2013-08-10 10:21:00,
2013-08-10 05:26:00,63.0,61.5,30.05,SE,132,0.0,0.0,95,0.00,,---,0.00,VWS V14.01,2013-08-10 10:26:00,
2013-08-10 05:30:00,62.9,61.5,30.06,SE,133,0.0,0.0,95,0.00,,---,0.00,VWS V14.01,2013-08-10 10:30:00,
2013-08-10 05:31:00,62.9,61.5,30.06,SE,133,0.0,0.0,95,0.00,,---,0.00,VWS V14.01,2013-08-10 10:31:00,
2013-08-10 05:36:00,62.8,61.3,30.06,SE,133,0.0,0.0,95,0.00,,---,0.00,VWS V14.01,2013-08-10 10:36:00,
2013-08-10 05:41:00,62.7,61.5,30.06,SE,133,0.0,0.0,96,0.00,,---,0.00,VWS V14.01,2013-08-10 10:41:00,
2013-08-10 05:46:00,62.7,61.5,30.06,SE,132,0.0,0.0,96,0.00,,---,0.00,VWS V14.01,2013-08-10 10:46:00,
2013-08-10 05:51:00,62.7,61.5,30.06,SE,133,0.0,0.0,96,0.00,,---,0.00,VWS V14.01,2013-08-10 10:51:00,
2013-08-10 05:56:00,62.7,61.5,30.06,SE,133,0.0,0.0,96,0.00,,---,0.00,VWS V14.01,2013-08-10 10:56:00,
2013-08-10 06:00:00,62.7,61.5,30.06,SE,132,0.0,0.0,96,0.00,,---,0.00,VWS V14.01,2013-08-10 11:00:00,
2013-08-10 06:01:00,62.8,61.7,30.06,SE,133,0.0,0.0,96,0.00,,---,0.00,VWS V14.01,2013-08-10 11:01:00,
2013-08-10 06:06:00,62.9,61.8,30.06,SE,133,0.0,0.0,96,0.00,,---,0.00,VWS V14.01,2013-08-10 11:06:00,
2013-08-10 06:11:00,63.1,61.9,30.06,SE,133,0.0,0.0,96,0.00,,---,0.00,VWS V14.01,2013-08-10 11:11:00,
2013-08-10 06:16:00,63.3,61.8,30.06,SE,132,0.0,0.0,95,0.00,,---,0.00,VWS V14.01,2013-08-10 11:16:00,
2013-08-10 06:21:00,63.5,62.0,30.07,SE,133,0.0,0.0,95,0.00,,---,0.00,VWS V14.01,2013-08-10 11:21:00,
2013-08-10 06:26:00,63.7,62.2,30.07,SE,133,0.0,0.0,95,0.00,,---,0.00,VWS V14.01,2013-08-10 11:26:00,
2013-08-10 06:30:00,63.7,62.2,30.07,SE,133,0.0,0.0,95,0.00,,---,0.00,VWS V14.01,2013-08-10 11:30:00,
2013-08-10 06:31:00,63.7,62.0,30.06,SE,133,0.0,0.0,94,0.00,,---,0.00,VWS V14.01,2013-08-10 11:31:00,
2013-08-10 06:36:00,64.0,62.2,30.07,SE,133,0.0,0.0,94,0.00,,---,0.00,VWS V14.01,2013-08-10 11:36:00,
2013-08-10 06:41:00,64.2,62.4,30.07,SE,133,0.0,0.0,94,0.00,,---,0.00,VWS V14.01,2013-08-10 11:41:00,
2013-08-10 06:46:00,64.3,62.5,30.07,SE,133,0.0,0.0,94,0.00,,---,0.00,VWS V14.01,2013-08-10 11:46:00,
2013-08-10 06:51:00,64.5,62.4,30.07,SE,133,0.0,0.0,93,0.00,,---,0.00,VWS V14.01,2013-08-10 11:51:00,
2013-08-10 06:56:00,64.7,62.6,30.07,SE,133,0.0,0.0,93,0.00,,---,0.00,VWS V14.01,2013-08-10 11:56:00,
2013-08-10 07:00:00,64.7,62.6,30.07,SE,133,0.0,0.0,93,0.00,,---,0.00,VWS V14.01,2013-08-10 12:00:00,
2013-08-10 07:01:00,64.7,62.6,30.07,SE,133,0.0,0.0,93,0.00,,---,0.00,VWS V14.01,2013-08-10 12:01:00,
2013-08-10 07:06:00,64.9,62.8,30.07,SE,133,0.0,0.0,93,0.00,,---,0.00,VWS V14.01,2013-08-10 12:06:00,
2013-08-10 07:11:00,65.0,62.9,30.07,SE,133,0.0,0.0,93,0.00,,---,0.00,VWS V14.01,2013-08-10 12:11:00,
2013-08-10 07:16:00,65.2,63.1,30.07,SE,133,0.0,0.0,93,0.00,,---,0.00,VWS V14.01,2013-08-10 12:16:00,
2013-08-10 07:21:00,65.5,63.4,30.07,SE,132,0.0,0.0,93,0.00,,---,0.00,VWS V14.01,2013-08-10 12:21:00,
2013-08-10 07:26:00,65.7,63.6,30.08,SE,133,0.0,0.0,93,0.00,,---,0.00,VWS V14.01,2013-08-10 12:26:00,
2013-08-10 07:30:00,65.8,63.7,30.08,SE,133,0.0,0.0,93,0.00,,---,0.00,VWS V14.01,2013-08-10 12:30:00,
2013-08-10 07:31:00,66.0,63.9,30.07,SE,132,0.0,0.0,93,0.00,,---,0.00,VWS V14.01,2013-08-10 12:31:00,
2013-08-10 07:36:00,66.4,64.0,30.07,SE,132,0.0,0.0,92,0.00,,---,0.00,VWS V14.01,2013-08-10 12:36:00,
2013-08-10 07:41:00,66.6,63.9,30.08,SE,129,0.0,0.0,91,0.00,,---,0.00,VWS V14.01,2013-08-10 12:41:00,
2013-08-10 07:46:00,66.9,64.2,30.07,North,358,0.0,0.0,91,0.00,,---,0.00,VWS V14.01,2013-08-10 12:46:00,
2013-08-10 07:51:00,67.2,64.5,30.07,East,88,0.0,0.0,91,0.00,,---,0.00,VWS V14.01,2013-08-10 12:51:00,
2013-08-10 07:56:00,67.5,64.5,30.07,ENE,64,0.0,0.0,90,0.00,,---,0.00,VWS V14.01,2013-08-10 12:56:00,
2013-08-10 08:00:00,67.6,64.6,30.08,North,8,0.0,0.0,90,0.00,,---,0.00,VWS V14.01,2013-08-10 13:00:00,
2013-08-10 08:01:00,67.9,64.9,30.08,North,8,0.0,0.0,90,0.00,,---,0.00,VWS V14.01,2013-08-10 13:01:00,
2013-08-10 08:06:00,68.1,65.1,30.08,North,8,0.0,0.0,90,0.00,,---,0.00,VWS V14.01,2013-08-10 13:06:00,
2013-08-10 08:11:00,68.3,65.3,30.07,North,8,0.0,0.0,90,0.00,,---,0.00,VWS V14.01,2013-08-10 13:11:00,
2013-08-10 08:16:00,68.3,64.9,30.08,North,10,0.0,0.0,89,0.00,,---,0.00,VWS V14.01,2013-08-10 13:16:00,
2013-08-10 08:21:00,68.5,64.8,30.08,East,88,0.0,3.0,88,0.00,,---,0.00,VWS V14.01,2013-08-10 13:21:00,
2013-08-10 08:26:00,68.5,64.8,30.08,NNE,15,0.0,3.0,88,0.00,,---,0.00,VWS V14.01,2013-08-10 13:26:00,
2013-08-10 08:30:00,68.5,64.8,30.08,East,94,1.0,3.0,88,0.00,,---,0.00,VWS V14.01,2013-08-10 13:30:00,
2013-08-10 08:31:00,68.6,64.9,30.08,East,94,0.0,1.0,88,0.00,,---,0.00,VWS V14.01,2013-08-10 13:31:00,
2013-08-10 08:36:00,68.9,65.2,30.08,NE,44,1.0,3.0,88,0.00,,---,0.00,VWS V14.01,2013-08-10 13:36:00,
2013-08-10 08:41:00,69.2,65.2,30.08,NE,53,2.0,3.0,87,0.00,,---,0.00,VWS V14.01,2013-08-10 13:41:00,
2013-08-10 08:46:00,69.4,65.0,30.08,NNE,18,4.0,5.0,86,0.00,,---,0.00,VWS V14.01,2013-08-10 13:46:00,
2013-08-10 08:50:00,69.4,64.4,30.07,East,101,1.0,5.0,84,0.00,,---,0.00,VWS V14.01,2013-08-10 13:50:00,
2013-08-10 08:55:00,69.7,65.3,30.08,East,84,1.0,5.0,86,0.00,,---,0.00,VWS V14.01,2013-08-10 13:55:00,
2013-08-10 09:00:00,69.7,64.0,30.08,SE,140,0.0,6.0,82,0.00,,---,0.00,VWS V14.01,2013-08-10 14:00:00,
2013-08-10 09:05:00,69.7,64.7,30.08,North,356,0.0,6.0,84,0.00,,---,0.00,VWS V14.01,2013-08-10 14:05:00,
2013-08-10 09:10:00,69.7,64.7,30.08,ESE,107,1.0,6.0,84,0.00,,---,0.00,VWS V14.01,2013-08-10 14:10:00,
2013-08-10 09:15:00,69.9,65.5,30.08,East,84,0.0,6.0,86,0.00,,---,0.00,VWS V14.01,2013-08-10 14:15:00,
2013-08-10 09:20:00,70.3,64.9,30.08,NE,46,2.0,6.0,83,0.00,,---,0.00,VWS V14.01,2013-08-10 14:20:00,
2013-08-10 09:25:00,70.6,64.8,30.08,ENE,57,1.0,6.0,82,0.00,,---,0.00,VWS V14.01,2013-08-10 14:25:00,
2013-08-10 09:30:00,71.0,65.2,30.08,SE,134,1.0,2.0,82,0.00,,---,0.00,VWS V14.01,2013-08-10 14:30:00,
2013-08-10 09:35:00,71.1,65.0,30.08,East,101,1.0,2.0,81,0.00,,---,0.00,VWS V14.01,2013-08-10 14:35:00,
2013-08-10 09:40:00,71.4,65.3,30.08,NE,44,1.0,4.0,81,0.00,,---,0.00,VWS V14.01,2013-08-10 14:40:00,
2013-08-10 09:45:00,72.0,65.9,30.08,ESE,105,2.0,4.0,81,0.00,,---,0.00,VWS V14.01,2013-08-10 14:45:00,
2013-08-10 09:50:00,72.3,65.4,30.08,SE,132,0.0,4.0,79,0.00,,---,0.00,VWS V14.01,2013-08-10 14:50:00,
2013-08-10 09:55:00,72.7,65.4,30.09,ENE,76,2.0,4.0,78,0.00,,---,0.00,VWS V14.01,2013-08-10 14:55:00,
2013-08-10 10:00:00,73.0,66.1,30.09,East,84,1.0,2.0,79,0.00,,---,0.00,VWS V14.01,2013-08-10 15:00:00,
2013-08-10 10:05:00,73.1,65.5,30.09,ENE,58,0.0,4.0,77,0.00,,---,0.00,VWS V14.01,2013-08-10 15:05:00,
2013-08-10 10:10:00,72.9,65.3,30.09,ENE,72,1.0,4.0,77,0.00,,---,0.00,VWS V14.01,2013-08-10 15:10:00,
2013-08-10 10:15:00,73.6,66.3,30.09,East,97,0.0,4.0,78,0.00,,---,0.00,VWS V14.01,2013-08-10 15:15:00,
2013-08-10 10:20:00,74.4,66.0,30.09,SW,229,0.0,4.0,75,0.00,,---,0.00,VWS V14.01,2013-08-10 15:20:00,
2013-08-10 10:25:00,74.3,65.9,30.09,SE,128,1.0,4.0,75,0.00,,---,0.00,VWS V14.01,2013-08-10 15:25:00,
2013-08-10 10:30:00,74.0,65.6,30.09,SSE,157,3.0,6.0,75,0.00,,---,0.00,VWS V14.01,2013-08-10 15:30:00,
2013-08-10 10:35:00,73.8,65.8,30.09,NNW,344,2.0,6.0,76,0.00,,---,0.00,VWS V14.01,2013-08-10 15:35:00,
2013-08-10 10:40:00,73.6,65.6,30.09,SSE,165,1.0,6.0,76,0.00,,---,0.00,VWS V14.01,2013-08-10 15:40:00,
2013-08-10 10:45:00,73.8,65.8,30.09,ESE,114,0.0,6.0,76,0.00,,---,0.00,VWS V14.01,2013-08-10 15:45:00,
2013-08-10 10:50:00,73.9,66.2,30.10,East,93,2.0,6.0,77,0.00,,---,0.00,VWS V14.01,2013-08-10 15:50:00,
2013-08-10 10:55:00,74.1,66.4,30.10,ENE,72,2.0,6.0,77,0.00,,---,0.00,VWS V14.01,2013-08-10 15:55:00,
2013-08-10 11:00:00,74.3,66.6,30.10,ESE,115,1.0,2.0,77,0.00,,---,0.00,VWS V14.01,2013-08-10 16:00:00,
2013-08-10 11:05:00,74.3,65.5,30.10,SSE,156,0.0,4.0,74,0.00,,---,0.00,VWS V14.01,2013-08-10 16:05:00,
2013-08-10 11:10:00,74.4,66.0,30.10,ENE,77,0.0,5.0,75,0.00,,---,0.00,VWS V14.01,2013-08-10 16:10:00,
2013-08-10 11:15:00,74.6,65.8,30.10,SSE,159,1.0,5.0,74,0.00,,---,0.00,VWS V14.01,2013-08-10 16:15:00,
2013-08-10 11:20:00,74.6,65.8,30.10,ENE,57,2.0,6.0,74,0.00,,---,0.00,VWS V14.01,2013-08-10 16:20:00,
2013-08-10 11:21:00,74.5,65.7,30.10,East,79,2.0,6.0,74,0.00,,---,0.00,VWS V14.01,2013-08-10 16:21:00,
2013-08-10 11:26:00,74.4,66.0,30.10,ESE,123,0.0,6.0,75,0.00,,---,0.00,VWS V14.01,2013-08-10 16:26:00,
2013-08-10 11:30:00,74.6,66.2,30.10,East,95,0.0,6.0,75,0.00,,---,0.00,VWS V14.01,2013-08-10 16:30:00,
2013-08-10 11:31:00,74.8,66.0,30.10,East,79,0.0,2.0,74,0.00,,---,0.00,VWS V14.01,2013-08-10 16:31:00,
2013-08-10 11:36:00,75.1,65.9,30.10,South,188,1.0,5.0,73,0.00,,---,0.00,VWS V14.01,2013-08-10 16:36:00,
2013-08-10 11:41:00,75.4,66.9,30.10,North,9,0.0,5.0,75,0.00,,---,0.00,VWS V14.01,2013-08-10 16:41:00,
2013-08-10 11:46:00,75.2,66.0,30.10,NNE,12,1.0,5.0,73,0.00,,---,0.00,VWS V14.01,2013-08-10 16:46:00,
2013-08-10 11:51:00,74.4,66.0,30.10,East,88,1.0,5.0,75,0.00,,---,0.00,VWS V14.01,2013-08-10 16:51:00,
2013-08-10 11:56:00,74.0,66.3,30.10,East,84,0.0,5.0,77,0.00,,---,0.00,VWS V14.01,2013-08-10 16:56:00,
2013-08-10 12:00:00,74.0,66.0,30.10,West,271,0.0,5.0,76,0.00,,---,0.00,VWS V14.01,2013-08-10 17:00:00,
2013-08-10 12:01:00,74.2,66.2,30.10,West,273,0.0,0.0,76,0.00,,---,0.00,VWS V14.01,2013-08-10 17:01:00,
2013-08-10 12:06:00,74.2,66.9,30.10,ENE,70,2.0,2.0,78,0.00,,---,0.00,VWS V14.01,2013-08-10 17:06:00,
2013-08-10 12:11:00,73.9,66.2,30.09,East,91,2.0,3.0,77,0.00,,---,0.00,VWS V14.01,2013-08-10 17:11:00,
2013-08-10 12:16:00,74.0,66.7,30.09,NE,44,1.0,3.0,78,0.00,,---,0.00,VWS V14.01,2013-08-10 17:16:00,
2013-08-10 12:21:00,74.1,66.8,30.09,East,101,0.0,3.0,78,0.00,,---,0.00,VWS V14.01,2013-08-10 17:21:00,
2013-08-10 12:26:00,73.9,67.0,30.09,NE,51,1.0,3.0,79,0.00,,---,0.00,VWS V14.01,2013-08-10 17:26:00,
2013-08-10 12:30:00,73.9,66.2,30.09,NE,50,0.0,3.0,77,0.00,,---,0.00,VWS V14.01,2013-08-10 17:30:00,
2013-08-10 12:31:00,73.8,66.5,30.09,SE,146,0.0,2.0,78,0.00,,---,0.00,VWS V14.01,2013-08-10 17:31:00,
2013-08-10 12:36:00,73.7,66.4,30.09,East,88,2.0,2.0,78,0.00,,---,0.00,VWS V14.01,2013-08-10 17:36:00,
2013-08-10 12:41:00,73.5,66.2,30.09,NW,304,2.0,3.0,78,0.00,,---,0.00,VWS V14.01,2013-08-10 17:41:00,
2013-08-10 12:46:00,73.5,66.6,30.09,NNE,26,1.0,4.0,79,0.00,,---,0.00,VWS V14.01,2013-08-10 17:46:00,
2013-08-10 12:51:00,73.7,66.4,30.09,ESE,109,0.0,4.0,78,0.00,,---,0.00,VWS V14.01,2013-08-10 17:51:00,
2013-08-10 12:56:00,73.8,66.5,30.09,East,98,2.0,4.0,78,0.00,,---,0.00,VWS V14.01,2013-08-10 17:56:00,
2013-08-10 13:00:00,73.9,65.9,30.09,ESE,120,0.0,4.0,76,0.00,,---,0.00,VWS V14.01,2013-08-10 18:00:00,
2013-08-10 13:01:00,74.0,66.0,30.09,East,97,1.0,5.0,76,0.00,,---,0.00,VWS V14.01,2013-08-10 18:01:00,
2013-08-10 13:06:00,73.8,66.5,30.09,NE,51,2.0,6.0,78,0.00,,---,0.00,VWS V14.01,2013-08-10 18:06:00,
2013-08-10 13:11:00,74.0,66.3,30.09,NNW,345,2.0,6.0,77,0.00,,---,0.00,VWS V14.01,2013-08-10 18:11:00,
2013-08-10 13:16:00,74.5,66.1,30.09,SE,139,1.0,6.0,75,0.00,,---,0.00,VWS V14.01,2013-08-10 18:16:00,
2013-08-10 13:21:00,74.7,66.3,30.08,NNE,14,3.0,7.0,75,0.00,,---,0.00,VWS V14.01,2013-08-10 18:21:00,
2013-08-10 13:26:00,74.3,65.5,30.09,West,269,0.0,7.0,74,0.00,,---,0.00,VWS V14.01,2013-08-10 18:26:00,
2013-08-10 13:30:00,74.2,66.2,30.09,NNW,342,0.0,7.0,76,0.00,,---,0.00,VWS V14.01,2013-08-10 18:30:00,
2013-08-10 13:31:00,74.2,65.8,30.09,North,4,2.0,3.0,75,0.00,,---,0.00,VWS V14.01,2013-08-10 18:31:00,
2013-08-10 13:36:00,74.2,65.8,30.08,East,86,2.0,6.0,75,0.00,,---,0.00,VWS V14.01,2013-08-10 18:36:00,
2013-08-10 13:41:00,74.0,65.6,30.08,East,79,2.0,6.0,75,0.00,,---,0.00,VWS V14.01,2013-08-10 18:41:00,
2013-08-10 13:46:00,74.2,66.5,30.08,NNW,335,1.0,6.0,77,0.00,,---,0.00,VWS V14.01,2013-08-10 18:46:00,
2013-08-10 13:51:00,75.0,67.7,30.08,WSW,249,1.0,6.0,78,0.00,,---,0.00,VWS V14.01,2013-08-10 18:51:00,
2013-08-10 13:56:00,75.5,66.6,30.09,North,359,3.0,6.0,74,0.00,,---,0.00,VWS V14.01,2013-08-10 18:56:00,
2013-08-10 14:00:00,75.5,65.8,30.09,East,82,1.0,7.0,72,0.00,,---,0.00,VWS V14.01,2013-08-10 19:00:00,
2013-08-10 14:01:00,75.7,66.8,30.08,ENE,64,2.0,3.0,74,0.00,,---,0.00,VWS V14.01,2013-08-10 19:01:00,
2013-08-10 14:06:00,75.7,66.8,30.08,East,82,2.0,8.0,74,0.00,,---,0.00,VWS V14.01,2013-08-10 19:06:00,
2013-08-10 14:11:00,75.9,67.4,30.08,North,3,1.0,8.0,75,0.00,,---,0.00,VWS V14.01,2013-08-10 19:11:00,
2013-08-10 14:16:00,76.0,67.1,30.08,ESE,112,2.0,8.0,74,0.00,,---,0.00,VWS V14.01,2013-08-10 19:16:00,
2013-08-10 14:21:00,76.3,67.4,30.08,ESE,102,2.0,8.0,74,0.00,,---,0.00,VWS V14.01,2013-08-10 19:21:00,
2013-08-10 14:26:00,75.9,66.6,30.08,ENE,57,2.0,10.0,73,0.00,,---,0.00,VWS V14.01,2013-08-10 19:26:00,
2013-08-10 14:30:00,75.7,66.8,30.08,NE,53,2.0,10.0,74,0.00,,---,0.00,VWS V14.01,2013-08-10 19:30:00,
2013-08-10 14:31:00,75.5,67.0,30.08,East,86,0.0,3.0,75,0.00,,---,0.00,VWS V14.01,2013-08-10 19:31:00,
2013-08-10 14:36:00,75.1,66.2,30.08,ESE,112,1.0,3.0,74,0.00,,---,0.00,VWS V14.01,2013-08-10 19:36:00,
2013-08-10 14:41:00,75.0,66.6,30.08,NE,49,1.0,5.0,75,0.00,,---,0.00,VWS V14.01,2013-08-10 19:41:00,
2013-08-10 14:46:00,75.5,67.0,30.08,NE,49,2.0,5.0,75,0.00,,---,0.00,VWS V14.01,2013-08-10 19:46:00,
2013-08-10 14:51:00,75.8,68.1,30.07,ESE,114,1.0,5.0,77,0.00,,---,0.00,VWS V14.01,2013-08-10 19:51:00,
2013-08-10 14:56:00,76.3,66.2,30.07,East,91,3.0,5.0,71,0.00,,---,0.00,VWS V14.01,2013-08-10 19:56:00,
2013-08-10 15:00:00,76.3,66.6,30.08,South,169,4.0,5.0,72,0.00,,---,0.00,VWS V14.01,2013-08-10 20:00:00,
2013-08-10 15:01:00,76.4,67.1,30.07,East,89,2.0,5.0,73,0.00,,---,0.00,VWS V14.01,2013-08-10 20:01:00,
2013-08-10 15:06:00,76.4,66.3,30.07,SSE,155,1.0,5.0,71,0.00,,---,0.00,VWS V14.01,2013-08-10 20:06:00,
2013-08-10 15:11:00,76.5,66.8,30.07,NE,56,1.0,5.0,72,0.00,,---,0.00,VWS V14.01,2013-08-10 20:11:00,
2013-08-10 15:16:00,76.7,66.2,30.07,SE,128,1.0,5.0,70,0.00,,---,0.00,VWS V14.01,2013-08-10 20:16:00,
2013-08-10 15:21:00,76.6,66.5,30.07,ENE,76,2.0,5.0,71,0.00,,---,0.00,VWS V14.01,2013-08-10 20:21:00,
2013-08-10 15:26:00,76.8,67.1,30.07,SSE,153,1.0,5.0,72,0.00,,---,0.00,VWS V14.01,2013-08-10 20:26:00,
2013-08-10 15:30:00,77.0,67.7,30.07,ESE,110,4.0,5.0,73,0.00,,---,0.00,VWS V14.01,2013-08-10 20:30:00,
2013-08-10 15:31:00,77.1,67.4,30.07,East,95,2.0,5.0,72,0.00,,---,0.00,VWS V14.01,2013-08-10 20:31:00,
2013-08-10 15:36:00,77.5,66.5,30.07,East,79,3.0,5.0,69,0.00,,---,0.00,VWS V14.01,2013-08-10 20:36:00,
2013-08-10 15:41:00,77.4,67.3,30.06,SE,124,2.0,5.0,71,0.00,,---,0.00,VWS V14.01,2013-08-10 20:41:00,
2013-08-10 15:46:00,77.2,66.2,30.07,NW,323,2.0,5.0,69,0.00,,---,0.00,VWS V14.01,2013-08-10 20:46:00,
2013-08-10 15:51:00,76.7,66.6,30.07,ESE,115,3.0,7.0,71,0.00,,---,0.00,VWS V14.01,2013-08-10 20:51:00,
2013-08-10 15:56:00,76.3,66.6,30.06,East,94,1.0,7.0,72,0.00,,---,0.00,VWS V14.01,2013-08-10 20:56:00,
2013-08-10 16:00:00,76.1,66.8,30.06,NE,46,2.0,7.0,73,0.00,,---,0.00,VWS V14.01,2013-08-10 21:00:00,
2013-08-10 16:01:00,75.8,66.1,30.06,North,6,2.0,2.0,72,0.00,,---,0.00,VWS V14.01,2013-08-10 21:01:00,
2013-08-10 16:06:00,75.1,66.2,30.06,ENE,75,1.0,3.0,74,0.00,,---,0.00,VWS V14.01,2013-08-10 21:06:00,
2013-08-10 16:11:00,74.8,66.0,30.06,North,352,1.0,3.0,74,0.00,,---,0.00,VWS V14.01,2013-08-10 21:11:00,
2013-08-10 16:16:00,74.6,66.5,30.06,ENE,60,1.0,4.0,76,0.00,,---,0.00,VWS V14.01,2013-08-10 21:16:00,
2013-08-10 16:21:00,74.9,65.7,30.06,East,86,2.0,4.0,73,0.00,,---,0.00,VWS V14.01,2013-08-10 21:21:00,
2013-08-10 16:26:00,74.9,66.1,30.06,ENE,65,2.0,5.0,74,0.00,,---,0.00,VWS V14.01,2013-08-10 21:26:00,
2013-08-10 16:30:00,74.9,66.4,30.06,ENE,72,1.0,5.0,75,0.00,,---,0.00,VWS V14.01,2013-08-10 21:30:00,
2013-08-10 16:31:00,74.6,65.8,30.06,ESE,102,1.0,4.0,74,0.00,,---,0.00,VWS V14.01,2013-08-10 21:31:00,
2013-08-10 16:36:00,74.2,65.8,30.06,NE,51,2.0,4.0,75,0.00,,---,0.00,VWS V14.01,2013-08-10 21:36:00,
2013-08-10 16:41:00,74.0,66.3,30.06,East,86,0.0,4.0,77,0.00,,---,0.00,VWS V14.01,2013-08-10 21:41:00,
2013-08-10 16:46:00,73.8,66.2,30.06,ENE,63,0.0,4.0,77,0.00,,---,0.00,VWS V14.01,2013-08-10 21:46:00,
2013-08-10 16:51:00,74.1,66.4,30.06,ESE,102,0.0,4.0,77,0.00,,---,0.00,VWS V14.01,2013-08-10 21:51:00,
2013-08-10 16:56:00,74.4,65.6,30.06,NE,43,1.0,5.0,74,0.00,,---,0.00,VWS V14.01,2013-08-10 21:56:00,
2013-08-10 17:00:00,74.6,66.2,30.06,ESE,122,0.0,5.0,75,0.00,,---,0.00,VWS V14.01,2013-08-10 22:00:00,
2013-08-10 17:01:00,75.3,67.2,30.06,ENE,67,1.0,4.0,76,0.00,,---,0.00,VWS V14.01,2013-08-10 22:01:00,
2013-08-10 17:06:00,75.6,65.5,30.06,NNE,14,1.0,4.0,71,0.00,,---,0.00,VWS V14.01,2013-08-10 22:06:00,
2013-08-10 17:11:00,75.2,66.3,30.06,NE,42,1.0,4.0,74,0.00,,---,0.00,VWS V14.01,2013-08-10 22:11:00,
2013-08-10 17:16:00,74.4,66.0,30.06,ENE,76,0.0,4.0,75,0.00,,---,0.00,VWS V14.01,2013-08-10 22:16:00,
2013-08-10 17:21:00,74.4,65.2,30.06,ESE,110,1.0,4.0,73,0.00,,---,0.00,VWS V14.01,2013-08-10 22:21:00,
2013-08-10 17:26:00,74.9,64.9,30.06,NNE,31,1.0,4.0,71,0.00,,---,0.00,VWS V14.01,2013-08-10 22:26:00,
2013-08-10 17:30:00,75.0,65.4,30.06,NE,49,0.0,4.0,72,0.00,,---,0.00,VWS V14.01,2013-08-10 22:30:00,
2013-08-10 17:31:00,75.3,65.7,30.06,ENE,78,2.0,3.0,72,0.00,,---,0.00,VWS V14.01,2013-08-10 22:31:00,
2013-08-10 17:35:00,75.5,66.2,30.06,ESE,122,1.0,3.0,73,0.00,,---,0.00,VWS V14.01,2013-08-10 22:35:00,
2013-08-10 17:40:00,75.8,64.9,30.06,NE,49,1.0,6.0,69,0.00,,---,0.00,VWS V14.01,2013-08-10 22:40:00,
2013-08-10 17:45:00,75.8,66.1,30.06,East,79,0.0,6.0,72,0.00,,---,0.00,VWS V14.01,2013-08-10 22:45:00,
2013-08-10 17:50:00,76.1,65.2,30.06,ESE,110,1.0,6.0,69,0.00,,---,0.00,VWS V14.01,2013-08-10 22:50:00,
2013-08-10 17:55:00,76.3,65.4,30.06,ESE,112,0.0,6.0,69,0.00,,---,0.00,VWS V14.01,2013-08-10 22:55:00,
2013-08-10 18:00:00,76.1,65.2,30.05,ENE,77,1.0,4.0,69,0.00,,---,0.00,VWS V14.01,2013-08-10 23:00:00,
2013-08-10 18:05:00,75.7,64.4,30.05,NE,49,3.0,4.0,68,0.00,,---,0.00,VWS V14.01,2013-08-10 23:05:00,
2013-08-10 18:10:00,75.2,63.9,30.06,NE,56,0.0,4.0,68,0.00,,---,0.00,VWS V14.01,2013-08-10 23:10:00,
2013-08-10 18:15:00,74.9,64.1,30.06,ENE,76,0.0,4.0,69,0.00,,---,0.00,VWS V14.01,2013-08-10 23:15:00,
2013-08-10 18:20:00,74.4,64.8,30.06,ENE,76,0.0,4.0,72,0.00,,---,0.00,VWS V14.01,2013-08-10 23:20:00,
2013-08-10 18:25:00,73.9,64.3,30.06,NE,43,0.0,4.0,72,0.00,,---,0.00,VWS V14.01,2013-08-10 23:25:00,
2013-08-10 18:30:00,73.6,63.6,30.06,NE,43,0.0,1.0,71,0.00,,---,0.00,VWS V14.01,2013-08-10 23:30:00,
2013-08-10 18:35:00,73.2,64.4,30.06,NE,43,0.0,1.0,74,0.00,,---,0.00,VWS V14.01,2013-08-10 23:35:00,
2013-08-10 18:40:00,73.0,63.5,30.06,NE,42,0.0,1.0,72,0.00,,---,0.00,VWS V14.01,2013-08-10 23:40:00,
2013-08-10 18:45:00,72.6,63.5,30.06,ENE,64,0.0,1.0,73,0.00,,---,0.00,VWS V14.01,2013-08-10 23:45:00,
2013-08-10 18:50:00,72.2,63.5,30.06,North,358,1.0,2.0,74,0.00,,---,0.00,VWS V14.01,2013-08-10 23:50:00,
2013-08-10 18:55:00,71.9,63.5,30.06,North,9,0.0,2.0,75,0.00,,---,0.00,VWS V14.01,2013-08-10 23:55:00,
2013-08-10 19:00:00,71.4,63.1,30.06,ESE,106,0.0,1.0,75,0.00,,---,0.00,VWS V14.01,2013-08-11 00:00:00,
2013-08-10 19:05:00,70.9,63.0,30.06,East,101,0.0,3.0,76,0.00,,---,0.00,VWS V14.01,2013-08-11 00:05:00,
2013-08-10 19:10:00,70.3,62.8,30.06,East,101,0.0,3.0,77,0.00,,---,0.00,VWS V14.01,2013-08-11 00:10:00,
2013-08-10 19:15:00,69.7,62.5,30.06,East,101,0.0,3.0,78,0.00,,---,0.00,VWS V14.01,2013-08-11 00:15:00,
2013-08-10 19:20:00,69.2,62.4,30.06,ESE,102,0.0,3.0,79,0.00,,---,0.00,VWS V14.01,2013-08-11 00:20:00,
2013-08-10 19:25:00,68.7,62.3,30.06,East,101,0.0,3.0,80,0.00,,---,0.00,VWS V14.01,2013-08-11 00:25:00,
2013-08-10 19:30:00,68.3,62.2,30.06,East,101,0.0,0.0,81,0.00,,---,0.00,VWS V14.01,2013-08-11 00:30:00,
2013-08-10 19:57:00,66.0,61.4,30.06,ESE,102,0.0,0.0,85,0.00,,---,0.00,VWS V14.01,2013-08-11 00:57:00,
2013-08-10 20:00:00,66.0,61.4,30.06,ESE,102,0.0,0.0,85,0.00,,---,0.00,VWS V14.01,2013-08-11 01:00:00,
2013-08-10 20:02:00,65.7,61.4,30.07,ESE,102,0.0,0.0,86,0.00,,---,0.00,VWS V14.01,2013-08-11 01:02:00,
2013-08-10 20:07:00,65.4,61.4,30.07,East,101,0.0,0.0,87,0.00,,---,0.00,VWS V14.01,2013-08-11 01:07:00,
2013-08-10 20:12:00,65.2,61.2,30.07,ESE,102,0.0,0.0,87,0.00,,---,0.00,VWS V14.01,2013-08-11 01:12:00,
2013-08-10 20:17:00,64.9,60.9,30.07,ESE,102,0.0,0.0,87,0.00,,---,0.00,VWS V14.01,2013-08-11 01:17:00,
2013-08-10 20:22:00,64.5,60.9,30.07,ESE,102,0.0,0.0,88,0.00,,---,0.00,VWS V14.01,2013-08-11 01:22:00,
2013-08-10 20:27:00,64.2,60.9,30.07,ESE,102,0.0,0.0,89,0.00,,---,0.00,VWS V14.01,2013-08-11 01:27:00,
2013-08-10 20:30:00,64.1,60.8,30.07,ESE,102,0.0,0.0,89,0.00,,---,0.00,VWS V14.01,2013-08-11 01:30:00,
2013-08-10 20:32:00,64.0,61.0,30.07,ESE,102,0.0,0.0,90,0.00,,---,0.00,VWS V14.01,2013-08-11 01:32:00,
2013-08-10 20:37:00,64.0,61.3,30.08,East,101,0.0,0.0,91,0.00,,---,0.00,VWS V14.01,2013-08-11 01:37:00,
2013-08-10 20:42:00,64.0,61.3,30.08,ESE,102,0.0,0.0,91,0.00,,---,0.00,VWS V14.01,2013-08-11 01:42:00,
2013-08-10 20:47:00,63.8,61.1,30.08,ESE,102,0.0,0.0,91,0.00,,---,0.00,VWS V14.01,2013-08-11 01:47:00,
2013-08-10 20:52:00,63.7,61.3,30.08,ESE,102,0.0,0.0,92,0.00,,---,0.00,VWS V14.01,2013-08-11 01:52:00,
2013-08-10 20:57:00,63.6,61.2,30.09,ESE,102,0.0,0.0,92,0.00,,---,0.00,VWS V14.01,2013-08-11 01:57:00,
2013-08-10 21:00:00,63.6,61.2,30.09,ESE,102,0.0,0.0,92,0.00,,---,0.00,VWS V14.01,2013-08-11 02:00:00,
2013-08-10 21:02:00,63.5,61.1,30.09,ESE,102,0.0,0.0,92,0.00,,---,0.00,VWS V14.01,2013-08-11 02:02:00,
2013-08-10 21:07:00,63.3,60.9,30.09,ESE,102,0.0,0.0,92,0.00,,---,0.00,VWS V14.01,2013-08-11 02:07:00,
2013-08-10 21:12:00,62.9,60.5,30.09,ESE,102,0.0,0.0,92,0.00,,---,0.00,VWS V14.01,2013-08-11 02:12:00,
2013-08-10 21:17:00,62.6,60.5,30.09,ESE,102,0.0,0.0,93,0.00,,---,0.00,VWS V14.01,2013-08-11 02:17:00,
2013-08-10 21:22:00,62.8,61.0,30.09,ESE,102,0.0,0.0,94,0.00,,---,0.00,VWS V14.01,2013-08-11 02:22:00,
2013-08-10 21:27:00,63.0,61.2,30.09,ESE,102,0.0,1.0,94,0.00,,---,0.00,VWS V14.01,2013-08-11 02:27:00,
2013-08-10 21:30:00,63.0,61.2,30.09,ESE,102,0.0,1.0,94,0.00,,---,0.00,VWS V14.01,2013-08-11 02:30:00,
2013-08-10 21:32:00,62.9,61.2,30.09,ESE,102,0.0,0.0,94,0.00,,---,0.00,VWS V14.01,2013-08-11 02:32:00,
2013-08-10 22:00:00,63.6,61.2,30.09,ESE,102,0.0,0.0,92,0.00,,---,0.00,VWS V14.01,2013-08-11 03:00:00,
2013-08-10 22:06:00,61.6,60.2,30.09,ESE,102,0.0,0.0,95,0.00,,---,0.00,VWS V14.01,2013-08-11 03:06:00,
2013-08-10 22:11:00,61.6,60.5,30.09,East,101,0.0,0.0,96,0.00,,---,0.00,VWS V14.01,2013-08-11 03:11:00,
2013-08-10 22:16:00,61.6,60.5,30.09,ESE,102,0.0,0.0,96,0.00,,---,0.00,VWS V14.01,2013-08-11 03:16:00,
2013-08-10 22:21:00,61.4,60.2,30.09,ESE,102,0.0,0.0,96,0.00,,---,0.00,VWS V14.01,2013-08-11 03:21:00,
2013-08-10 22:26:00,61.4,60.2,30.09,ESE,102,0.0,0.0,96,0.00,,---,0.00,VWS V14.01,2013-08-11 03:26:00,
2013-08-10 22:30:00,61.3,60.2,30.09,ESE,102,0.0,0.0,96,0.00,,---,0.00,VWS V14.01,2013-08-11 03:30:00,
2013-08-10 22:31:00,61.1,60.0,30.09,East,101,0.0,0.0,96,0.00,,---,0.00,VWS V14.01,2013-08-11 03:31:00,
2013-08-10 22:36:00,60.6,59.2,30.09,ESE,102,0.0,0.0,95,0.00,,---,0.00,VWS V14.01,2013-08-11 03:36:00,
2013-08-10 22:41:00,60.1,58.7,30.09,ESE,102,0.0,0.0,95,0.00,,---,0.00,VWS V14.01,2013-08-11 03:41:00,
2013-08-10 22:46:00,60.2,59.1,30.10,ESE,102,0.0,0.0,96,0.00,,---,0.00,VWS V14.01,2013-08-11 03:46:00,
2013-08-10 22:51:00,60.1,59.0,30.10,East,101,0.0,0.0,96,0.00,,---,0.00,VWS V14.01,2013-08-11 03:51:00,
2013-08-10 22:57:00,60.2,59.3,30.10,East,101,0.0,0.0,97,0.00,,---,0.00,VWS V14.01,2013-08-11 03:57:00,
2013-08-10 23:00:00,60.2,59.3,30.10,ESE,102,0.0,0.0,97,0.00,,---,0.00,VWS V14.01,2013-08-11 04:00:00,
2013-08-10 23:01:00,60.2,59.3,30.10,ESE,102,0.0,0.0,97,0.00,,---,0.00,VWS V14.01,2013-08-11 04:01:00,
2013-08-10 23:06:00,60.2,59.3,30.10,ESE,102,0.0,0.0,97,0.00,,---,0.00,VWS V14.01,2013-08-11 04:06:00,
2013-08-10 23:11:00,60.1,59.2,30.10,East,101,0.0,0.0,97,0.00,,---,0.00,VWS V14.01,2013-08-11 04:11:00,
2013-08-10 23:16:00,60.1,59.2,30.10,East,101,0.0,0.0,97,0.00,,---,0.00,VWS V14.01,2013-08-11 04:16:00,
2013-08-10 23:21:00,60.4,59.8,30.10,ESE,102,0.0,0.0,98,0.00,,---,0.00,VWS V14.01,2013-08-11 04:21:00,
2013-08-10 23:26:00,60.6,60.0,30.09,ESE,102,0.0,0.0,98,0.00,,---,0.00,VWS V14.01,2013-08-11 04:26:00,
2013-08-10 23:30:00,60.6,60.0,30.09,ESE,102,0.0,0.0,98,0.00,,---,0.00,VWS V14.01,2013-08-11 04:30:00,
2013-08-10 23:31:00,60.7,60.1,30.09,ESE,102,0.0,0.0,98,0.00,,---,0.00,VWS V14.01,2013-08-11 04:31:00,
2013-08-10 23:36:00,60.6,60.0,30.09,ESE,102,0.0,0.0,98,0.00,,---,0.00,VWS V14.01,2013-08-11 04:36:00,
2013-08-10 23:41:00,60.3,59.5,30.09,ESE,102,0.0,0.0,97,0.00,,---,0.00,VWS V14.01,2013-08-11 04:41:00,
2013-08-10 23:46:00,60.1,59.5,30.09,ESE,102,0.0,0.0,98,0.00,,---,0.00,VWS V14.01,2013-08-11 04:46:00,
2013-08-10 23:51:00,59.9,59.0,30.09,ESE,102,0.0,0.0,97,0.00,,---,0.00,VWS V14.01,2013-08-11 04:51:00,
2013-08-10 23:56:00,59.5,58.7,30.09,ESE,102,0.0,0.0,97,0.00,,---,0.00,VWS V14.01,2013-08-11 04:56:00,